Weather History for Milas, Turkey

Change the Weather History Date:

Friday, December 14, 2012

  Actual Average (LGKO) Record (LGKO)
Temperature  
Mean Temperature 47 °F -  
Max Temperature 57 °F 57 °F 66 °F (2005)
Min Temperature 37 °F 49 °F 42 °F (2013)
Degree Days  
Heating Degree Days 18    
Moisture  
Dew Point 32 °F    
Average Humidity 61    
Maximum Humidity 87    
Minimum Humidity 35    
Precipitation  
Precipitation 0.00 in - - ()
Sea Level Pressure  
Sea Level Pressure 30.25 in    
Wind  
Wind Speed 4 mph ()    
Max Wind Speed 8 mph    
Max Gust Speed -    
Visibility 6.2 miles    
Events      
Averages and records for this station are not official NWS values.
T = Trace of Precipitation, MM = Missing Value Source: Averaged Metar Reports

Daily Weather History Graph

Daily Weather History Graph

Search for Another Location

Airport:

Trip Planner

Search our weather history database for the weather conditions in past years. The results will help you decide how hot, cold, wet, or windy it might be!

Date:

Astronomy

Dec. 14, 2012 Rise Set
Actual Time 7:15 AM EET 4:52 PM EET
Civil Twilight 6:46 AM EET 5:21 PM EET
Nautical Twilight 6:13 AM EET 5:54 PM EET
Astronomical Twilight 5:41 AM EET 6:26 PM EET
Moon 8:03 AM EET (12/14) 6:21 PM EET (12/14)
Length of Visible Light 10h 35m
Length of Day
9h 37m
New Moon, 2% of the Moon is Illuminated
Dec 14
New Moon
Dec 20
First Quarter
Dec 28
Full
Jan 5
Last Quarter
Jan 11
New

Hourly Weather History & Observations

Time (EET) Temp. Windchill Dew Point Humidity Pressure Visibility Wind Dir Wind Speed Gust Speed Precip Events Conditions
12:20 AM 39.2 °F 35.9 °F 33.8 °F 81% 30.27 in - SE 4.6 mph - N/A   Clear
12:50 AM 41.0 °F - 33.8 °F 76% 30.24 in - Variable 2.3 mph - N/A   Clear
1:20 AM 41.0 °F 38.0 °F 32.0 °F 70% 30.24 in - ENE 4.6 mph - N/A   Clear
2:50 AM 41.0 °F 39.0 °F 30.2 °F 65% 30.27 in - Variable 3.5 mph - N/A   Clear
3:20 AM 41.0 °F 39.0 °F 32.0 °F 70% 30.27 in - Variable 3.5 mph - N/A   Clear
3:50 AM 39.2 °F 37.0 °F 32.0 °F 75% 30.24 in - ESE 3.5 mph - N/A   Clear
4:20 AM 41.0 °F 39.0 °F 30.2 °F 65% 30.24 in - South 3.5 mph - N/A   Clear
4:50 AM 37.4 °F 33.8 °F 32.0 °F 81% 30.24 in - SSE 4.6 mph - N/A   Clear
5:20 AM 39.2 °F 35.9 °F 32.0 °F 75% 30.24 in - ESE 4.6 mph - N/A   Clear
5:50 AM 39.2 °F 35.0 °F 32.0 °F 75% 30.24 in - ENE 5.8 mph - N/A   Clear
6:20 AM 39.2 °F 34.2 °F 32.0 °F 75% 30.24 in - East 6.9 mph - N/A   Clear
6:50 AM 41.0 °F 36.4 °F 30.2 °F 65% 30.24 in - East 6.9 mph - N/A   Clear
7:20 AM 41.0 °F 37.1 °F 28.4 °F 61% 30.24 in - East 5.8 mph - N/A   Clear
7:50 AM 41.0 °F 39.0 °F 30.2 °F 65% 30.27 in - SSE 3.5 mph - N/A   Clear
8:20 AM 42.8 °F 40.1 °F 30.2 °F 61% 30.27 in - South 4.6 mph - N/A   Clear
8:50 AM 46.4 °F 45.2 °F 30.2 °F 53% 30.27 in - ESE 3.5 mph - N/A   Clear
9:20 AM 48.2 °F - 32.0 °F 54% 30.27 in - South 4.6 mph - N/A   Clear
9:50 AM 48.2 °F - 30.2 °F 50% 30.27 in - ESE 4.6 mph - N/A   Clear
10:20 AM 51.8 °F - 30.2 °F 44% 30.27 in - Variable 2.3 mph - N/A   Clear
10:50 AM 53.6 °F - 28.4 °F 38% 30.24 in - Variable 2.3 mph - N/A   Clear
11:20 AM 53.6 °F - 28.4 °F 38% 30.24 in - NNE 4.6 mph - N/A   Clear
11:50 AM 53.6 °F - 26.6 °F 35% 30.24 in 6.2 mi North 5.8 mph - N/A   Scattered Clouds
12:20 PM 53.6 °F - 30.2 °F 41% 30.24 in 6.2 mi North 8.1 mph - N/A   Scattered Clouds
12:50 PM 55.4 °F - 32.0 °F 41% 30.24 in 6.2 mi North 5.8 mph - N/A   Scattered Clouds
1:20 PM 55.4 °F - 33.8 °F 44% 30.24 in 6.2 mi West 6.9 mph - N/A   Scattered Clouds
1:50 PM 55.4 °F - 33.8 °F 44% 30.24 in 6.2 mi WNW 5.8 mph - N/A   Scattered Clouds
2:20 PM 55.4 °F - 32.0 °F 41% 30.21 in 6.2 mi West 5.8 mph - N/A   Scattered Clouds
2:50 PM 55.4 °F - 32.0 °F 41% 30.21 in 6.2 mi West 3.5 mph - N/A   Scattered Clouds
3:20 PM 57.2 °F - 32.0 °F 38% 30.21 in 6.2 mi Variable 2.3 mph - N/A   Scattered Clouds
3:50 PM 53.6 °F - 33.8 °F 47% 30.24 in 6.2 mi NNE 3.5 mph - N/A   Scattered Clouds
4:20 PM 51.8 °F - 33.8 °F 50% 30.24 in 6.2 mi NNE 5.8 mph - N/A   Scattered Clouds
4:50 PM 48.2 °F - 32.0 °F 54% 30.24 in 6.2 mi NE 6.9 mph - N/A   Scattered Clouds
5:20 PM 46.4 °F 42.9 °F 32.0 °F 57% 30.24 in 6.2 mi ENE 6.9 mph - N/A   Scattered Clouds
5:50 PM 44.6 °F 42.2 °F 35.6 °F 71% 30.24 in 6.2 mi SE 4.6 mph - N/A   Partly Cloudy
6:20 PM 44.6 °F 41.4 °F 32.0 °F 61% 30.24 in - ENE 5.8 mph - N/A   Clear
6:50 PM 44.6 °F 43.1 °F 32.0 °F 61% 30.24 in - SE 3.5 mph - N/A   Clear
7:20 PM 42.8 °F 40.1 °F 32.0 °F 66% 30.24 in - SE 4.6 mph - N/A   Clear
7:50 PM 41.0 °F 38.0 °F 32.0 °F 70% 30.24 in - East 4.6 mph - N/A   Clear
8:20 PM 41.0 °F 37.1 °F 32.0 °F 70% 30.24 in - SE 5.8 mph - N/A   Clear
8:50 PM 41.0 °F 37.1 °F 32.0 °F 70% 30.24 in - ESE 5.8 mph - N/A   Clear
9:20 PM 41.0 °F - 30.2 °F 65% 30.24 in - Variable 2.3 mph - N/A   Clear
9:50 PM 39.2 °F 35.9 °F 32.0 °F 75% 30.24 in - ESE 4.6 mph - N/A   Clear
10:20 PM 37.4 °F 33.8 °F 32.0 °F 81% 30.27 in - East 4.6 mph - N/A   Clear
10:50 PM 39.2 °F 34.2 °F 32.0 °F 75% 30.27 in - SE 6.9 mph - N/A   Clear
11:20 PM 37.4 °F 32.1 °F 32.0 °F 81% 30.27 in - SE 6.9 mph - N/A   Clear
11:50 PM 37.4 °F 33.8 °F 33.8 °F 87% 30.27 in - SSE 4.6 mph - N/A   Clear